Погода в Куанпамаше

Россия / Республика Марий Эл     57°04′53″N   48°34′01″E
темп.,
°C
ветер,
м/с
пор.,
м/с
влажн.,
%
обл.,
%
осадки,
мм/ч
давл.,
гПа
погр.,
м
7 мая, пт
пт700:00+10ю51584100 0.0 1012338
03:00+10ю51384100 0.0 1012289
06:00+11ю51380100 0.0 1012346
09:00+15ю71261100 0.0 1012794
12:00+17ююз81251100 0.0 10112190
15:00+16ююз81257100 0.1 10101281
18:00+13зюз6979100 1.0 1011630
21:00+7сз3690100 2.5 1015332
8 мая, сб
сб800:00+6з2294100 0.2 101740
03:00+5зсз229377 0.2 101825
06:00+7св11831 0.0 1019122
09:00+11в34600 0.0 1018834
12:00+14вюв554924 0.0 10171405
15:00+14юв5559100 0.0 10151242
18:00+14ююв5969100 0.0 1014765
21:00+13ююв51275100 0.0 1013401
9 мая, вс
вс900:00+11ююв61678100 0.0 1012388
03:00+12ююв71467100 0.0 1011485
06:00+11ююв61379100 0.0 1011419
09:00+14ююв71269100 0.0 1011614
12:00+18ююз81254100 0.0 10111511
15:00+14зюз7978100 0.3 1014673
18:00+11зсз5889100 1.9 1016550
21:00+7сз4789100 3.3 1019469
10 мая, пн
пн1000:00+6ссз5990100 0.6 1021499
03:00+6ссз5987100 0.7 1023544
06:00+6ссз5982100 0.0 1026609
09:00+9с68615 0.0 1028905
12:00+13с56460 0.0 10281346
15:00+14ссз45415 0.0 10291678
18:00+13ссз235326 0.0 102965
21:00+8з116256 0.0 103010
11 мая, вт
вт1100:00+7сз2265100 0.0 103111
03:00+7з116797 0.0 103210
06:00+9з236457 0.0 103399
09:00+13зюз345391 0.0 1033527
12:00+17зюз3446100 0.0 10331131
15:00+18з3447100 0.0 10311062
18:00+16з226170 0.0 103152
21:00+12юз3367100 0.0 103119